Home > Weather > Grenchen > Past weeks

Flag for Switzerland Weather for the Past 2 Weeks in Grenchen, Solothurn, Switzerland

Now
43 °F

Partly cloudy.


Feels Like: 39 °F
Forecast: 33 / 40 °F
Wind: 7 mph from West

Location: Grenchen

Current Time: Feb 14, 2016 at 4:01:03 AM

Latest Report: Feb 14, 2016 at 3:20 AM


Visibility: N/A

Pressure: 29.21 "Hg

Humidity: 87%

Dew point: 39 °F

Location of GrenchenLocation

Historic Weather in Grenchen — Graph

°F

Grenchen Temperature Yesterday

Maximum temperature yesterday: 45 °F (at 9:20 PM)
Minimum temperature yesterday: 32 °F (at 12:20 AM)
Average temperature yesterday: 39 °F

High & Low Weather Summary for the Past Weeks

 TemperatureHumidityPressure
High57 °F (Feb 1, 12:20 PM)100% (Jan 30, 2:20 AM)30.48 "Hg (Jan 30, 2:20 AM)
Low27 °F (Jan 30, 6:20 AM)47% (Jan 30, 2:50 PM)29.21 "Hg (Feb 13, 3:20 PM)
Average41 °F89%29.94 "Hg
* Reported Jan 30 2:20 AM — Feb 14 2:20 AM, Grenchen, Weather by CustomWeather, © 2016

Note: Actual official high and low records may vary slightly from our data, if they occured in-between our weather recording intervals... More about our weather records

Advertising

Grenchen Weather History for the Previous 24 Hours

 ConditionsComfort  
Time TempWeatherWind HumidityBarometerVisibility
2:20 AM
Sun, Feb 14
43 °FPassing clouds.9 mph87%29.24 "HgN/A
1:50 AM43 °FClear.12 mph87%29.24 "HgN/A
1:20 AM43 °FMostly cloudy.10 mph87%29.24 "HgN/A
12:50 AM45 °FPassing clouds.13 mph81%29.27 "HgN/A
12:20 AM45 °FPartly cloudy.20 mph87%29.24 "HgN/A
11:50 PM
Sat, Feb 13
45 °FSprinkles. Passing clouds.21 mph87%29.24 "HgN/A
11:20 PM45 °FPartly cloudy.16 mph93%29.24 "HgN/A
10:50 PM45 °FPassing clouds.18 mph87%29.24 "HgN/A
10:20 PM45 °FLight rain. Partly cloudy.22 mph93%29.24 "HgN/A
9:50 PM45 °FRain. Partly cloudy.20 mph93%29.24 "Hg4 mi
9:20 PM45 °FRain showers. Partly cloudy.16 mph93%29.24 "Hg3 mi
8:50 PM43 °FRain showers. Passing clouds.13 mph100%29.24 "Hg4 mi
8:20 PM43 °FSprinkles. Partly cloudy.10 mph93%29.24 "Hg5 mi
7:50 PM41 °FLight rain. Passing clouds.5 mph100%29.24 "HgN/A
7:20 PM41 °FLight rain. Passing clouds.6 mph100%29.24 "Hg6 mi
6:50 PM43 °FRain showers. Partly cloudy.5 mph93%29.24 "HgN/A
6:20 PM41 °FSprinkles. Partly sunny.6 mph100%29.24 "HgN/A
5:50 PM41 °FSprinkles. Broken clouds.1 mph93%29.24 "HgN/A
5:20 PM41 °FBroken clouds.2 mph93%29.24 "HgN/A
4:50 PM41 °FLight rain. Partly sunny.13 mph93%29.24 "HgN/A
4:20 PM41 °FRain. Partly sunny.6 mph93%29.24 "Hg3 mi
3:50 PM41 °FLight rain. Partly sunny.2 mph93%29.21 "Hg4 mi
3:20 PM41 °FLight rain. Partly sunny.3 mph93%29.21 "Hg4 mi
2:50 PM41 °FPartly sunny.12 mph93%29.24 "HgN/A
2:20 PM41 °FSprinkles. Mostly cloudy.14 mph87%29.27 "HgN/A
1:50 PM41 °FDrizzle. Partly sunny.15 mph87%29.27 "HgN/A
1:20 PM41 °FBroken clouds.9 mph87%29.30 "HgN/A
12:50 PM39 °FBroken clouds.5 mph93%29.30 "HgN/A
12:20 PM39 °FBroken clouds.2 mph93%29.30 "HgN/A
11:50 AM39 °FDrizzle. Broken clouds.2 mph93%29.33 "HgN/A
11:20 AM39 °FDrizzle. Broken clouds.2 mph87%29.36 "HgN/A
10:50 AM37 °FLight rain. Overcast.6 mph93%29.36 "HgN/A
10:20 AM37 °FLight rain. Overcast.9 mph93%29.36 "HgN/A
9:50 AM39 °FPartly sunny.5 mph93%29.36 "HgN/A
9:20 AM37 °FPartly sunny.6 mph93%29.36 "HgN/A
8:50 AM37 °FBroken clouds.8 mph93%29.39 "HgN/A
8:20 AM37 °FPassing clouds.6 mph100%29.39 "HgN/A
7:50 AM36 °FPartly cloudy.7 mph100%29.39 "HgN/A
7:20 AM36 °FPartly cloudy.8 mph100%29.39 "HgN/A
6:50 AM37 °FLight rain. Passing clouds.10 mph100%29.39 "Hg6 mi
6:20 AM37 °FLight rain. Passing clouds.7 mph100%29.42 "Hg3 mi
5:50 AM36 °FRain. Passing clouds.7 mph100%29.42 "Hg5 mi
5:20 AM37 °FLight rain. Fog.6 mph100%29.42 "Hg3 mi
4:50 AM37 °FLight rain. Partly cloudy.7 mph100%29.42 "HgN/A
4:20 AM36 °FLight rain. Low clouds.8 mph100%29.42 "Hg4 mi
Weather by CustomWeather, © 2016

See weather overviewHow to use our weather pages